Station 46061 (LLNR 1131) - Seal Rocks - Between Montague and Hinchinbrook Islands, AK Image indicating link to RSS feed of recent meteorological observations for station 46061

Prince William Sound Approach (VTS Area)


Conditions at 46061 as of
(7:10 pm AKDT on 05/23/2024)
0310 GMT on 05/24/2024:
     

Click on the graph icon in the table below to see a time series plot of the last five days of that observation.

5-day plot - Wind Speed Wind Speed (WSPD): 0.0 kts
5-day plot - Wind Gust Wind Gust (GST): 0.0 kts
5-day plot - Atmospheric Pressure Atmospheric Pressure (PRES):29.85 in
5-day plot - Air Temperature Air Temperature (ATMP): 50.4 °F
5-day plot - Water Temperature Water Temperature (WTMP): 47.3 °F
5-day plot - Dew Point Dew Point (DEWP): 43.7 °F
5-day plot - Wind Speed at 10 Meters Wind Speed at 10 meters (WSPD10M): 0.0 kts
5-day plot - Wind Speed at 20 Meters Wind Speed at 20 meters (WSPD20M): 0.0 kts
5-day plot -  Wind Speed, Wind Gust and Atmospheric Pressure Combined plot of Wind Speed, Gust, and Air Pressure
Supplemental Measurements
Lowest 1-minute Pressure
Time (AKDT)Pressure
7:10 pm29.85 in
Highest 1-minute Wind Speed
Time (AKDT)5-day plot - 1-Minute Wind Speed WSPD 5-day plot - 1-Minute Wind Direction WDIR
7:09 pm 0.0 kts N ( 6 deg true )
Previous observations
TIME
(AKDT)
5-day plot - Wind Direction
WDIR
 
5-day plot - Wind Speed
WSPD
kts
5-day plot - Wind Gust
GST
kts
5-day plot - Wave Height
WVHT
ft
5-day plot - Dominant Wave Period
DPD
sec
5-day plot - Average Wave Period
APD
sec
5-day plot - Mean Wave Direction
MWD
 
5-day plot - Atmospheric Pressure
PRES
in
5-day plot - Pressure Tendency
PTDY
in
5-day plot - Air Temperature
ATMP
°F
5-day plot - Water Temperature
WTMP
°F
5-day plot - Dew Point
DEWP
°F
5-day plot - Salinity
SAL
psu
5-day plot - Visibility
VIS
nmi
5-day plot - Tide (above MLLW)
TIDE
ft
2024-05-23 07:00 pm- 0.0 1.9----29.85+0.01 49.3 46.4 43.5---
2024-05-23 06:50 pmWSW 1.9 3.9 2.0 64.2 N29.85- 48.7 46.2 43.9---
2024-05-23 06:40 pmSSW 3.9 3.9----29.85- 48.6 46.2 43.5---
2024-05-23 06:30 pm S 1.9 1.9----29.85- 48.2 46.6 43.0---
2024-05-23 06:20 pmESE 1.9 1.9 1.6 64.3 N29.85- 48.2 46.8 42.8---
2024-05-23 06:10 pmESE 1.9 3.9 1.6-4.3 N29.85- 48.0 46.6 42.6---
2024-05-23 06:00 pmESE 1.9 3.9----29.85+0.01 48.0 46.4 42.4---
2024-05-23 05:50 pmESE 3.9 3.9 1.6 64.2SSW29.85- 47.8 46.4 42.1---
2024-05-23 05:40 pm E 3.9 3.9 1.6-4.2SSW29.85- 48.0 46.6 42.3---
2024-05-23 05:30 pm E 3.9 3.9----29.85- 48.0 46.9 42.1---
2024-05-23 05:20 pm SE 1.9 3.9 1.3 63.8 N29.85- 48.0 46.6 41.9---
2024-05-23 05:10 pm SE 1.9 3.9 1.3-3.8 N29.85- 48.0 46.8 41.5---
2024-05-23 05:00 pm SE 1.9 1.9----29.85+0.02 48.0 46.6 41.5---
2024-05-23 04:50 pm SE 1.9 1.9 2.6 86.1 S29.84- 47.8 46.9 41.5---
2024-05-23 04:40 pm SE 1.9 1.9----29.84- 47.8 46.6 41.9---
2024-05-23 04:30 pm SE 1.9 1.9----29.84- 47.8 46.6 41.9---
2024-05-23 04:20 pmESE 1.9 3.9 3.0 76.1SSE29.84- 47.5 46.6 41.5---
2024-05-23 04:10 pm SE 1.9 3.9 3.0-6.1SSE29.84- 47.3 46.4 41.7---
2024-05-23 04:00 pm SE 3.9 3.9----29.84+0.02 47.5 46.2 41.9---
2024-05-23 03:50 pmESE 3.9 3.9 2.6 75.6 SE29.84- 47.5 46.4 41.5---
2024-05-23 03:40 pmESE 1.9 3.9----29.84- 47.5 46.4 41.2---
2024-05-23 03:10 pm SE 3.9 3.9 2.6-5.6SSE29.84- 47.7 46.4 41.2---
2024-05-23 03:00 pm SE 1.9 3.9----29.84+0.03 47.5 46.4 41.0---
2024-05-23 02:50 pmESE 1.9 3.9 3.0 85.6 SE29.83- 47.3 46.4 41.2---
2024-05-23 02:40 pm- 0.0 1.9 3.0-5.6 SE29.83- 46.8 46.4 41.2---
2024-05-23 02:30 pmNNE 3.9 5.8----29.83- 46.6 46.4 41.5---
2024-05-23 02:20 pm NE 5.8 7.8 2.0 64.2 E29.83- 46.6 46.4 41.9---
2024-05-23 02:10 pm NE 5.8 7.8 2.0-4.2 E29.83- 46.4 46.6 41.9---
2024-05-23 02:00 pm NE 7.8 9.7----29.82+0.02 46.4 46.6 41.7---
2024-05-23 01:50 pm NE 7.8 9.7 2.0 64.1ENE29.82- 46.2 46.6 41.5---
2024-05-23 01:40 pm NE 7.8 9.7 2.0-4.1ENE29.82- 46.0 46.8 41.5---
2024-05-23 01:30 pmNNE 7.8 9.7----29.82- 46.4 46.6 41.7---
2024-05-23 01:20 pm N 3.9 5.8 2.0 64.0 SE29.82- 47.1 46.4 41.4---
2024-05-23 01:10 pmNNW 3.9 5.8 2.0-4.0 SE29.82- 47.3 46.4 40.6---
2024-05-23 01:00 pm N 5.8 7.8----29.82+0.02 46.4 46.6 41.5---
2024-05-23 12:50 pm N 7.8 9.7 2.3 74.7 S29.82- 45.9 46.6 41.5---
2024-05-23 12:40 pm N 7.8 9.7----29.82- 45.9 46.4 41.4---
2024-05-23 12:30 pm N 7.8 9.7----29.82- 45.7 46.4 41.5---
2024-05-23 12:20 pm N 7.8 9.7 2.3 64.4WSW29.82- 45.7 46.4 41.7---
2024-05-23 12:10 pmNNW 7.8 9.7 2.3-4.4WSW29.82- 45.9 46.4 41.5---
2024-05-23 12:00 pmNNW 9.7 13.6----29.82+0.01 45.7 46.6 41.7---
2024-05-23 11:50 am N 11.7 13.6 2.0 64.4NNE29.81- 45.5 46.6 41.9---
2024-05-23 11:40 am N 11.7 15.5 2.0-4.4NNE29.81- 45.5 46.4 41.9---
2024-05-23 11:30 am N 11.7 13.6----29.80- 45.5 46.2 41.5---
2024-05-23 11:20 am N 11.7 13.6 2.6 64.5 S29.80- 45.9 46.0 41.5---
2024-05-23 11:10 am N 9.7 11.7 2.6-4.5 S29.80- 46.0 45.9 41.7---
2024-05-23 11:00 am N 9.7 11.7----29.80+0.00 46.0 45.9 41.4---
2024-05-23 10:50 am N 9.7 11.7 3.6 65.4SSE29.81- 46.0 45.9 41.0---
2024-05-23 10:40 amNNW 9.7 11.7 3.6-5.4SSE29.80- 45.9 45.9 41.0---
2024-05-23 10:30 amNNW 9.7 11.7----29.80- 45.9 45.9 41.2---
2024-05-23 10:20 amNNW 9.7 13.6 3.6 65.3 SE29.81- 45.7 45.9 41.0---
2024-05-23 10:10 amNNW 11.7 13.6 3.6-5.3 SE29.81- 45.3 45.9 40.8---
2024-05-23 10:00 am NW 11.7 15.5----29.81+0.01 45.1 45.9 40.6---
2024-05-23 09:50 amNNW 11.7 15.5 3.6 75.4 SE29.80- 44.8 45.9 40.6---
2024-05-23 09:40 amNNW 11.7 15.5----29.81- 45.0 45.9 41.2---
2024-05-23 09:30 amNNW 11.7 15.5----29.81- 44.6 45.7 40.8---
2024-05-23 09:20 amNNW 13.6 15.5 3.9 65.4SSE29.81- 44.6 45.7 41.0---
2024-05-23 09:10 amNNW 13.6 15.5 3.9-5.4SSE29.81- 44.6 45.7 41.0---
2024-05-23 09:00 amNNW 13.6 17.5----29.81+0.01 44.4 45.7 40.8---
2024-05-23 08:50 amNNW 13.6 17.5 3.6 65.2SSE29.81- 44.2 45.7 41.0---
2024-05-23 08:40 am NW 13.6 17.5 3.6-5.2SSE29.81- 44.2 45.7 41.4---
2024-05-23 08:30 amNNW 13.6 17.5----29.81- 44.1 45.7 41.5---
2024-05-23 08:20 amNNW 13.6 17.5 3.9 75.0SSE29.81- 43.9 45.7 41.7---
2024-05-23 08:10 amNNW 15.5 17.5 3.9-5.0SSE29.81- 43.9 45.7 41.9---
2024-05-23 08:00 amNNW 15.5 17.5----29.81+0.01 43.9 45.7 41.9---
2024-05-23 07:50 amNNW 15.5 17.5 3.6 74.8 SE29.80- 43.9 45.7 41.9---
2024-05-23 07:40 amNNW 15.5 19.4 3.6-4.8 SE29.80- 43.9 45.7 42.1---
2024-05-23 07:30 amNNW 15.5 17.5----29.80- 44.1 45.7 42.3---
2024-05-23 07:20 am N 15.5 19.4 3.6 75.1 SE29.80- 44.2 45.7 42.4---
2024-05-23 07:10 am N 15.5 19.4 3.6-5.1 SE29.80- 44.2 45.5 42.4---
2024-05-23 07:00 am N 15.5 19.4----29.80+0.00 44.2 45.5 42.6---
2024-05-23 06:50 am N 15.5 19.4 3.6 75.2 SE29.80- 44.1 45.5 42.8---
2024-05-23 06:40 am N 13.6 17.5 3.6-5.2 SE29.80- 44.1 45.5 43.2---
2024-05-23 06:30 am N 13.6 17.5----29.80- 44.1 45.5 43.2---
2024-05-23 06:20 am N 13.6 15.5 3.6 75.4SSE29.80- 44.2 45.5 43.2---
2024-05-23 06:10 am N 11.7 13.6 3.6-5.4SSE29.80- 44.2 45.5 42.6---
2024-05-23 06:00 am N 13.6 17.5----29.80+0.00 44.2 45.5 42.3---
2024-05-23 05:50 am N 13.6 15.5 3.6 85.8 SE29.80- 44.2 45.5 42.1---
2024-05-23 05:40 am N 11.7 13.6----29.80- 44.2 45.5 42.3---
2024-05-23 05:30 am N 11.7 13.6----29.80- 44.2 45.7 42.4---
2024-05-23 05:20 amNNE 11.7 13.6 3.9 85.5SSE29.79- 44.1 45.7 42.3---
2024-05-23 05:10 amNNE 11.7 13.6 3.9-5.5SSE29.79- 44.1 45.5 42.3---
2024-05-23 05:00 amNNE 9.7 13.6----29.80+0.00 43.9 45.5 42.1---
2024-05-23 04:50 amNNE 11.7 13.6 3.9 85.6 SE29.80- 44.1 45.5 42.1---
2024-05-23 04:40 amNNE 11.7 13.6----29.80- 44.1 45.5 42.1---
2024-05-23 04:30 amNNE 11.7 13.6----29.79- 44.1 45.7 42.3---
2024-05-23 04:20 am NE 11.7 13.6 4.3 85.3SSE29.79- 44.1 45.7 42.3---
2024-05-23 04:10 am NE 11.7 13.6 4.3-5.3SSE29.79- 43.9 45.7 42.3---
2024-05-23 04:00 am NE 11.7 13.6----29.80+0.00 43.9 45.7 42.4---
2024-05-23 03:50 am NE 9.7 11.7 3.6 85.0 SE29.80- 43.9 45.7 42.6---
2024-05-23 03:40 am NE 9.7 13.6----29.80- 43.9 45.7 42.6---
2024-05-23 03:30 am NE 9.7 13.6----29.80- 43.9 45.9 42.6---
2024-05-23 03:20 am NE 9.7 13.6 3.9 85.5SSE29.80- 43.7 45.9 42.6---
2024-05-23 03:10 am NE 9.7 11.7 3.9-5.5SSE29.80- 43.7 45.9 42.6---
2024-05-23 03:00 amENE 9.7 13.6----29.80+0.00 44.1 46.0 42.4---
2024-05-23 02:50 amENE 9.7 13.6 3.6 84.9 SE29.80- 44.2 46.0 42.4---
2024-05-23 02:40 am E 11.7 15.5 3.6-4.9 SE29.80- 44.6 46.0 42.6---
2024-05-23 02:30 am E 13.6 17.5----29.80- 44.4 46.0 42.6---
2024-05-23 02:20 amENE 13.6 17.5 3.9 84.9 SE29.80- 44.6 46.2 42.8---
2024-05-23 02:10 am E 15.5 19.4 3.9-4.9 SE29.80- 44.6 46.2 42.6---
2024-05-23 02:00 amENE 15.5 21.4----29.80-0.02 44.8 46.2 42.4---
2024-05-23 01:50 am E 17.5 21.4 4.3 75.1SSE29.80- 44.8 46.2 42.6---
2024-05-23 01:40 am E 17.5 21.4 4.3-5.1SSE29.80- 44.4 46.2 42.4---
2024-05-23 01:30 am E 17.5 21.4----29.80- 44.6 46.4 42.6---
2024-05-23 01:20 amENE 15.5 19.4 3.9 75.0ESE29.80- 44.4 46.2 42.6---
2024-05-23 01:10 am E 17.5 21.4 3.9-5.0ESE29.80- 44.4 46.2 42.8---
2024-05-23 01:00 am E 17.5 21.4----29.80-0.03 44.6 46.0 43.0---
2024-05-23 12:50 am E 19.4 23.3 3.9 74.8SSE29.80- 44.4 46.0 43.2---
2024-05-23 12:40 am E 19.4 23.3 3.9-4.8SSE29.80- 44.6 45.9 43.9---
2024-05-23 12:30 am E 21.4 25.3----29.80- 44.8 46.0 44.2---
2024-05-23 12:20 am E 19.4 25.3 4.3 85.3 SE29.80- 44.8 46.2 44.1---
2024-05-23 12:10 am E 19.4 25.3 4.3-5.3 SE29.80- 44.8 46.0 43.7---
2024-05-23 12:00 am E 19.4 23.3----29.81-0.03 44.8 46.0 43.3---
2024-05-22 11:50 pm E 19.4 25.3 4.3 75.1 SE29.81- 44.8 46.2 43.2---
2024-05-22 11:40 pm E 17.5 21.4 4.3-5.1 SE29.81- 44.4 46.0 43.2---
2024-05-22 11:30 pm E 19.4 23.3----29.81- 44.6 46.2 43.9---
2024-05-22 11:20 pm E 21.4 25.3 4.6 74.9 SE29.81- 44.8 46.0 44.4---
2024-05-22 11:10 pm E 21.4 23.3 4.6-4.9 SE29.81- 44.8 46.0 44.4---
2024-05-22 11:00 pm E 19.4 23.3----29.82-0.05 44.6 46.2 44.2---
2024-05-22 10:50 pm E 19.4 23.3 4.6 65.2 SE29.82- 44.6 46.2 44.2---
2024-05-22 10:40 pm E 17.5 23.3----29.82- 44.6 46.2 44.2---
2024-05-22 10:30 pm E 19.4 23.3----29.82- 44.6 46.2 44.4---
2024-05-22 10:20 pm E 19.4 21.4 5.2 74.9 SE29.83- 44.6 46.0 44.2---
2024-05-22 10:10 pm E 21.4 27.2 5.2-4.9 SE29.83- 44.4 45.9 44.1---
2024-05-22 10:00 pm E 21.4 25.3----29.83-0.04 44.4 45.9 44.1---
2024-05-22 09:50 pm E 21.4 25.3 5.2 75.0 SE29.83- 44.4 45.9 44.2---
2024-05-22 09:40 pm E 19.4 25.3----29.83- 44.4 45.9 44.2---
2024-05-22 09:30 pm E 21.4 25.3----29.83- 44.2 45.9 44.1---
2024-05-22 09:20 pm E 19.4 23.3 6.2 75.1 SE29.83- 44.4 45.7 44.2---
2024-05-22 09:10 pm E 19.4 23.3 6.2-5.1 SE29.84- 44.4 45.7 44.2---
2024-05-22 09:00 pm E 19.4 23.3----29.84-0.04 44.2 45.9 44.1---
2024-05-22 08:50 pm E 19.4 23.3 5.9 75.4 SE29.84- 44.2 46.0 44.1---
2024-05-22 08:40 pm E 19.4 23.3 5.9-5.4 SE29.85- 44.2 46.0 44.1---
2024-05-22 08:30 pm E 19.4 23.3----29.85- 44.2 46.0 44.1---
2024-05-22 08:20 pm E 19.4 23.3 5.2 75.2 SE29.85- 44.2 46.0 44.2---
2024-05-22 08:10 pm E 19.4 23.3 5.2-5.2 SE29.85- 44.2 46.0 44.2---
2024-05-22 08:00 pm E 17.5 21.4----29.86-0.03 44.2 46.0 44.2---
2024-05-22 07:50 pm E 17.5 21.4 5.6 75.4 SE29.86- 44.2 46.0 44.2---
2024-05-22 07:40 pm E 17.5 21.4 5.6-5.4 SE29.86- 44.2 46.0 44.1---
2024-05-22 07:30 pm E 17.5 21.4----29.87- 44.2 45.9 44.1---
2024-05-22 07:20 pm E 19.4 23.3 5.6 75.2 SE29.87- 44.2 45.9 44.1---
2024-05-22 07:10 pm E 17.5 21.4 5.6-5.2 SE29.87- 44.2 45.9 44.1---
2024-05-22 07:00 pm E 17.5 21.4----29.87-0.04 44.2 45.9 43.9---
2024-05-22 06:50 pm E 19.4 21.4 5.6 85.3 SE29.87- 44.1 45.9 43.9---

Detailed Wave Summary
for 46061 as of
(6:40 pm AKDT on 05/23/2024)
0240 GMT on 05/24/2024:

These wave data are displayed in rounded times.

     

Click on the graph icon in the table below to see a time series plot of the last five days of that observation.

5-day plot - Significant Wave Height Significant Wave Height (WVHT): 2.0 ft
5-day plot - Swell Height Swell Height (SwH): 1.6 ft
5-day plot - Swell Period Swell Period (SwP): 5.6 sec
5-day plot - Swell Direction Swell Direction (SwD): N
5-day plot - Wind Wave Height Wind Wave Height (WWH): 1.0 ft
5-day plot - Wind Wave Period Wind Wave Period (WWP): 3.2 sec
5-day plot - Wind Wave Direction Wind Wave Direction (WWD):NNE
5-day plot - Average Wave Period Average Wave Period (APD): 4.2 sec
Previous observations
TIME
(AKDT)
5-day plot - Wave Height
WVHT
ft
5-day plot - Swell Height
SwH
ft
5-day plot - Swell Period
SwP
sec
5-day plot - Swell Direction
SwD
 
5-day plot - Wind Wave Height
WWH
ft
5-day plot - Wind Wave Period
WWP
sec
5-day plot - Wind Wave Direction
WWD
 
5-day plot - Wave Steepness
STEEPNESS
 
5-day plot - Average Wave Period
APD
sec
2024-05-23 06:10 pm 1.6 1.6 5.6 N 1.0 4.0 NNE N/A 4.3
2024-05-23 05:40 pm 1.6 1.3 5.6SSW 1.0 3.1 SSW N/A 4.2
2024-05-23 05:10 pm 1.3 1.0 5.6 N 1.0 3.3 NNE N/A 3.8
2024-05-23 04:40 pm 2.6 2.3 8.3 S 0.7 3.3 WSW N/A 6.1
2024-05-23 04:10 pm 3.0 2.6 7.1SSE 1.0 3.4 NNW AVERAGE 6.1
2024-05-23 03:40 pm 2.6 2.6 7.1 SE 1.0 3.6 NNE AVERAGE 5.6
2024-05-23 03:10 pm 2.6 2.3 7.7SSE 1.0 3.3 NNW N/A 5.6
2024-05-23 02:40 pm 3.0 2.6 7.7 SE 1.0 4.0 NNW AVERAGE 5.6
2024-05-23 02:10 pm 2.0 1.6 5.9 E 1.0 3.7 S N/A 4.2
2024-05-23 01:40 pm 2.0 1.6 5.9ENE 1.0 3.8 N N/A 4.1
2024-05-23 01:10 pm 2.0 1.6 5.6 SE 1.0 3.6 N N/A 4.0
2024-05-23 12:40 pm 2.3 2.0 6.7 S 1.0 4.0 NNW N/A 4.7
2024-05-23 12:10 pm 2.3 2.0 6.2WSW 1.3 3.6 N N/A 4.4
2024-05-23 11:40 am 2.0 1.0 5.9NNE 1.6 4.5 N N/A 4.4
2024-05-23 11:10 am 2.6 2.0 6.2 S 2.0 4.8 NNE STEEP 4.5
2024-05-23 10:40 am 3.6 3.0 6.2SSE 1.6 4.8 SSE STEEP 5.4
2024-05-23 10:10 am 3.6 3.0 6.2 SE 2.0 5.3 SSE STEEP 5.3
2024-05-23 09:40 am 3.6 3.0 6.7 SE 2.0 5.0 SSE STEEP 5.4
2024-05-23 09:10 am 3.9 2.6 9.1SSW 2.6 6.2 SSE STEEP 5.4
2024-05-23 08:40 am 3.6 2.6 7.1 SE 2.6 5.9 SSE STEEP 5.2
2024-05-23 08:10 am 3.9 2.3 9.1 S 3.3 6.7 SSE STEEP 5.0
2024-05-23 07:40 am 3.6 2.6 6.7 SE 2.6 3.8 NNE STEEP 4.8
2024-05-23 07:10 am 3.6 2.6 6.7 SE 2.3 5.6 SE STEEP 5.1
2024-05-23 06:40 am 3.6 3.0 7.1 SE 2.3 5.6 SE AVERAGE 5.2
2024-05-23 06:10 am 3.6 3.0 7.1SSE 2.3 5.6 SE AVERAGE 5.4
2024-05-23 05:40 am 3.6 3.3 7.7 SE 2.0 5.6 SE AVERAGE 5.8
2024-05-23 05:10 am 3.9 3.3 7.7SSE 2.0 5.0 SE AVERAGE 5.5
2024-05-23 04:40 am 3.9 3.3 7.7 SE 2.3 5.6 SE AVERAGE 5.6
2024-05-23 04:10 am 4.3 3.6 7.7SSE 2.3 4.2 SE AVERAGE 5.3
2024-05-23 03:40 am 3.6 3.3 7.7 SE 2.0 3.4 NNW AVERAGE 5.0
2024-05-23 03:10 am 3.9 3.6 7.7SSE 1.6 4.3 SSE AVERAGE 5.5
2024-05-23 02:40 am 3.6 3.0 7.7 SE 2.3 5.6 SE AVERAGE 4.9
2024-05-23 02:10 am 3.9 3.0 7.7 SE 2.6 5.6 SE AVERAGE 4.9
2024-05-23 01:40 am 4.3 3.3 7.1SSE 2.6 5.6 SE AVERAGE 5.1
2024-05-23 01:10 am 3.9 3.0 7.1ESE 2.6 4.3 ESE AVERAGE 5.0
2024-05-23 12:40 am 3.9 3.0 7.1SSE 2.6 5.9 SSE AVERAGE 4.8
2024-05-23 12:10 am 4.3 2.6 7.7 SE 3.6 6.7 SE AVERAGE 5.3
2024-05-22 11:40 pm 4.3 3.0 6.7 SE 3.0 5.6 SE STEEP 5.1
2024-05-22 11:10 pm 4.6 3.3 7.1 SE 3.3 6.2 SE STEEP 4.9
2024-05-22 10:40 pm 4.6 3.0 7.1 SE 3.3 6.2 SE STEEP 5.2
2024-05-22 10:10 pm 5.2 3.9 6.7 SE 3.6 3.8 SE STEEP 4.9
2024-05-22 09:40 pm 5.2 3.6 6.7 SE 3.9 5.6 SE STEEP 5.0
2024-05-22 09:10 pm 6.2 4.3 7.1 SE 4.3 4.3 SE STEEP 5.1
2024-05-22 08:40 pm 5.9 1.3 10.0 S 5.9 7.1 SE STEEP 5.4
2024-05-22 08:10 pm 5.2 3.0 7.1 SE 4.3 4.2 SE STEEP 5.2
2024-05-22 07:40 pm 5.6 3.0 14.8 SE 4.9 7.1 SE STEEP 5.4
2024-05-22 07:10 pm 5.6 3.9 7.1 SE 3.9 4.5 SE STEEP 5.2

Plot of wave energy versus frequency (and period)